Погода в Истборне

Великобритания     50°47′21″N   0°17′10″E
темп.,
°C
ветер,
м/с
пор.,
м/с
влажн.,
%
обл.,
%
осадки,
мм/ч
давл.,
гПа
погр.,
м
15 апреля, чт
чт1501:00+2ссв46865 0.0 1033254
04:00+1ссв57905 0.0 1033173
07:00+2ссв599217 0.0 1033241
10:00+6св676812 0.0 10331078
13:00+8св676082 0.1 10321496
16:00+8св786253 0.6 10311629
19:00+6св69642 0.6 1031784
22:00+3св59875 0.0 1032355
16 апреля, пт
пт1601:00+2св589031 0.0 1031262
04:00+2ссв47917 0.0 1031173
07:00+2ссв599312 0.0 1031214
10:00+7св67715 0.0 1031849
13:00+8в566579 0.1 1031865
16:00+8в675917 0.0 10291092
19:00+7всв57682 0.0 1030483
22:00+3св58830 0.0 1030245
17 апреля, сб
сб1701:00+3ссв58910 0.0 1030224
04:00+2ссв58926 0.0 1029200
07:00+2ссв59928 0.0 1029237
10:00+7св67720 0.0 1029767
13:00+10всв45615 0.0 10281020
16:00+9в456515 0.0 1027879
19:00+8всв34733 0.0 1027167
22:00+5ссв23785 0.0 1028132
18 апреля, вс
вс1801:00+3с22765 0.0 102757
04:00+3ссв227498 0.0 102655
07:00+4ссв1171100 0.0 102655
10:00+8ю1164100 0.0 1027289
13:00+9юз3266100 0.0 1026583
16:00+9зюз326997 0.0 1025439
19:00+8зюз3476100 0.0 1025143
22:00+7зюз118284 0.0 102513
19 апреля, пн
пн1901:00+6з118271 0.0 102417
04:00+6в118248 0.0 102313
07:00+6в118049 0.0 102327
10:00+9юв336446 0.0 1022430
13:00+10юв337061 0.0 1022531
16:00+10ююв226780 0.0 1020417
19:00+9в2275100 0.0 101930
22:00+8в3378100 0.0 101933